CAPE
0 0 0 0 0 0 0 1 0 1 1 1 1 1 1 2 2 1 2 3 2 5
0 0 0 0 0 0 0 0 0 1 1 1 1 1 1 1 2 2 3 2 2 4
0 0 0 0 0 0 0 0 0 1 1 1 1 1 0 0 1 2 2 3 3 2
0 0 0 0 0 0 0 0 0 0 1 1 1 1 1 1 1 2 2 1 3 1
0 0 0 0 0 0 0 0 0 0 1 1 1 1 2 2 1 1 2 2 3 3
0 0 0 0 0 0 0 0 0 0 0 1 1 1 1 1 1 1 1 1 2 3
0 0 0 0 0 0 0 0 0 0 0 1 1 1 1 1 0 0 0 0 1 2
0 0 0 0 0 0 0 0 0 0 0 0 1 1 1 1 3 1 0 1 1 2
0 0 0 0 0 0 0 0 0 0 0 0 1 0 7 10 3 4 1 2 1 1
0 0 0 0 0 0 0 0 0 0 0 0 0 0 8 11 7 1 0 0 1 2
0 0 0 0 0 0 0 0 0 0 0 0 0 1 5 8 2 1 0 2 0 1
0 0 0 0 0 0 0 0 0 0 0 0 0 0 3 6 1 0 0 0 0 0
0 0 0 0 0 0 0 0 0 0 0 0 0 0 1 6 3 0 0 0 0 0
0 0 0 0 0 0 0 0 0 0 0 0 0 0 0 6 4 1 1 0 0 0
CIN
-0 -0 -0 -0 -0 -0 -0 -0 -0 -0 -0 -0 -0 -0 -0 -0 -0 -0 -0 -0 -0 -0
-0 -0 -0 -0 -0 -0 -0 -0 -0 -0 -0 -0 -0 -0 -0 -0 -0 -0 -0 -0 -0 -0
-0 -0 -0 -0 -0 -0 -0 -0 -0 -0 -0 -0 -0 -0 -0 -0 -0 -0 -0 -0 -0 -0
-0 -0 -0 -0 -0 -0 -0 -0 -0 -0 -0 -0 -0 -0 -0 -0 -0 -0 -0 -0 -0 -0
-0 -0 -0 -0 -0 -0 -0 -0 -0 -0 -0 -0 -0 -0 -0 -0 -0 -0 -0 -0 -0 -0
-0 -0 -0 -0 -0 -0 -0 -0 -0 -0 -0 -0 -0 -0 -0 -0 -0 -0 -0 -0 -0 -0
-0 -0 -0 -0 -0 -0 -0 -0 -0 -0 -0 -0 -0 -0 -0 -0 -0 -0 -0 -0 -0 -0
-0 -0 -0 -0 -0 -0 -0 -0 -0 -0 -0 -0 -0 -0 -0 -0 -0 -1 -0 -0 -0 -0
-0 -0 -0 -0 -0 -0 -0 -0 -0 -0 -0 -0 -0 -0 -0 -0 -0 -0 -0 -0 -1 -0
-0 -0 -0 -0 -0 -0 -0 -0 -0 -0 -0 -0 -0 -0 -0 -0 -0 -0 -0 -0 -0 -0
-0 -0 -0 -0 -0 -0 -0 -0 -0 -0 -0 -0 -0 -0 -0 -0 -0 -0 -0 -0 -0 -0
-0 -0 -0 -0 -0 -0 -0 -0 -0 -0 -0 -0 -0 -0 -0 -0 -1 -1 -0 -0 -0 -0
-0 -0 -0 -0 -0 -0 -0 -0 -0 -0 -0 -0 -0 -0 -1 -0 -1 -1 -0 -0 -0 -0
-0 -0 -0 -0 -0 -0 -0 -0 -0 -0 -0 -0 -0 -0 -1 -1 -1 -1 -1 -0 -0 -0
Wind_Speed
42 42 43 43 44 43 44 45 47 48 48 48 48 48 48 50 51 51 50 53 49 51
41 41 42 42 41 42 43 44 46 48 48 48 48 48 48 48 51 51 53 52 50 49
39 39 40 41 42 42 44 45 46 47 47 48 47 47 47 48 49 51 52 53 52 50
38 39 40 41 42 43 44 45 46 46 47 47 47 46 47 48 50 52 52 52 52 53
37 38 40 41 43 44 45 45 45 46 47 47 46 46 46 48 48 51 53 54 53 56
36 38 40 41 43 45 45 45 45 44 45 46 46 46 45 46 47 50 52 53 55 54
36 38 39 40 42 44 45 45 44 44 45 45 45 45 44 44 46 50 54 55 56 54
35 36 38 40 42 44 45 45 44 44 44 44 43 43 43 44 46 48 51 53 56 55
35 36 39 41 43 44 46 46 45 44 44 44 43 44 44 44 45 44 46 49 52 56
35 36 39 42 43 45 47 46 46 45 44 44 44 44 45 45 44 43 42 45 49 55
35 37 39 42 44 44 45 46 47 46 44 44 44 45 44 44 43 41 41 42 45 52
36 39 40 43 45 45 45 48 46 45 45 44 44 44 43 43 42 40 40 41 42 44
38 39 41 43 45 43 43 47 46 46 44 44 44 43 43 42 40 39 40 40 40 41
39 40 41 42 43 45 45 46 47 46 45 43 42 43 42 41 40 38 39 38 38 40
Wind_Direction
338 335 331 328 324 320 315 312 309 306 302 297 293 290 285 276 270 264 265 263 263 261
341 339 335 332 327 322 316 312 309 306 303 298 293 288 286 279 271 266 263 262 261 261
342 341 339 335 329 323 317 311 307 305 303 300 295 290 285 279 272 265 263 259 260 259
343 342 340 337 331 325 318 311 306 305 303 301 297 292 287 281 272 265 263 258 258 255
344 342 340 337 332 326 319 313 307 305 303 301 299 294 289 283 276 266 262 258 257 253
345 343 341 339 334 328 322 315 309 307 304 302 301 297 292 285 278 269 261 258 254 254
346 344 343 341 337 332 325 318 311 307 304 303 302 302 294 289 282 274 263 258 251 250
346 345 344 342 340 334 327 321 314 308 303 304 304 306 299 294 288 280 269 259 252 248
342 343 342 342 341 336 325 322 317 309 303 302 305 303 300 299 293 286 275 262 253 246
338 339 339 338 339 337 327 321 318 312 304 300 302 303 301 300 296 289 279 268 257 248
332 333 335 334 333 335 333 322 316 313 305 299 301 302 301 300 296 289 283 275 260 248
327 328 329 328 328 329 330 322 315 313 305 300 298 301 299 299 297 290 285 279 265 253
321 323 324 324 324 327 327 322 316 308 307 301 298 300 297 298 297 290 289 281 269 257
317 318 319 320 321 320 320 319 314 307 307 305 302 300 296 297 296 291 291 283 273 258